Probability
0 0 0 0 0 0 0 0 0 0 0 0 0 0 0 0 0 0 0 0 0 0 0 0 0 0 0 0 0 0 0 0 0 0 0 0 0 0 0 0 0 0 0 0
0 0 0 0 0 0 0 0 0 0 0 0 0 0 0 0 0 0 0 0 0 0 0 0 0 0 0 0 0 0 0 0 0 0 0 0 0 0 0 0 0 0 0 0
0 0 0 0 0 0 0 0 0 0 0 0 0 0 0 0 0 0 0 0 0 0 0 0 0 0 0 0 0 0 0 0 0 0 0 0 0 0 0 0 0 0 0 0
0 0 0 0 0 0 0 0 0 0 0 0 0 0 0 0 0 0 0 0 0 0 0 0 0 0 0 0 0 0 0 0 0 0 0 0 0 0 0 0 0 0 0 0
0 0 0 0 0 0 0 0 0 0 0 0 0 0 0 0 0 0 0 0 0 0 0 0 0 0 0 0 0 0 0 0 0 0 0 0 0 0 0 0 0 0 0 0
0 0 0 0 0 0 0 0 0 0 0 0 0 0 0 0 0 0 0 0 0 0 0 0 0 0 0 0 0 0 0 0 0 0 0 0 0 0 0 0 0 0 0 0
0 0 0 0 0 0 0 0 0 0 0 0 0 0 0 0 0 0 0 0 0 0 0 0 0 0 0 0 0 0 0 0 0 0 0 0 0 0 0 0 0 0 0 0
0 0 0 0 0 0 0 0 0 0 0 0 0 0 0 0 0 0 0 0 0 0 0 0 0 0 0 0 0 0 0 0 0 0 0 0 0 0 0 0 0 0 0 0
0 0 0 0 0 0 0 0 0 0 0 0 0 0 0 0 0 0 0 0 0 0 0 0 0 0 0 0 0 0 0 0 0 0 0 0 0 0 0 0 0 0 0 0
0 0 0 0 0 0 0 0 0 0 0 0 0 0 0 0 0 0 0 0 0 0 0 0 0 0 0 0 0 0 0 0 0 0 0 0 0 0 0 0 0 0 0 0
0 0 0 0 0 0 0 0 0 0 0 0 0 0 0 0 0 0 0 0 0 0 0 0 0 0 0 0 0 0 0 0 0 0 0 0 0 0 0 0 0 0 0 0
0 0 0 0 0 0 0 0 0 0 0 0 0 0 0 0 0 0 0 0 0 0 0 0 0 0 0 0 0 0 0 0 0 0 0 0 0 0 0 0 0 0 0 0
0 0 0 0 0 0 0 0 0 0 0 0 0 0 0 0 0 0 0 0 0 0 0 0 0 0 0 0 0 0 0 0 0 0 0 0 0 0 0 0 0 0 0 0
0 0 0 0 0 0 0 0 0 0 0 0 0 0 0 0 0 0 0 0 0 0 0 0 0 0 0 0 0 0 0 0 0 0 0 0 0 0 0 0 0 0 0 0
0 0 0 0 0 0 0 0 0 0 0 0 0 0 0 0 0 0 0 0 0 0 0 0 0 0 0 0 0 0 0 0 0 0 0 0 0 0 0 0 0 0 0 0
0 0 0 0 0 0 0 0 0 0 0 0 0 0 0 0 0 0 0 0 0 0 0 0 0 0 0 0 0 0 0 0 0 0 0 0 0 0 0 0 0 0 0 0
0 0 0 0 0 0 0 0 0 0 0 0 0 0 0 0 0 0 0 0 0 0 0 0 0 0 0 0 0 0 0 0 0 0 0 0 0 0 0 0 0 0 0 0
0 0 0 0 0 0 0 0 0 0 0 0 0 0 0 0 0 0 0 0 0 0 0 0 0 0 0 0 0 0 0 0 0 0 0 0 0 0 0 0 0 0 0 0
0 0 0 0 0 0 0 0 0 0 0 0 0 0 0 0 0 0 0 0 0 0 0 0 0 0 0 0 0 0 0 0 0 0 0 0 0 0 0 0 0 0 0 0
0 0 0 0 0 0 0 0 0 0 0 0 0 0 0 0 0 0 0 0 0 0 0 0 0 0 0 0 0 0 0 0 0 0 0 0 0 0 0 0 0 0 0 0
0 0 0 0 0 0 0 0 0 0 0 0 0 0 0 0 0 0 0 0 0 0 0 0 0 0 0 0 0 0 0 0 0 0 0 0 0 0 0 0 0 0 0 0
0 0 0 0 0 0 0 0 0 0 0 0 0 0 0 0 0 0 0 0 0 0 0 0 0 0 0 0 0 0 0 0 0 0 0 0 0 0 0 0 0 0 0 0
0 0 0 0 0 0 0 0 0 0 0 0 0 0 0 0 0 0 0 0 0 0 0 0 0 0 0 0 0 0 0 0 0 0 0 0 0 0 0 0 0 0 0 0
0 0 0 0 0 0 0 0 0 0 0 0 0 0 0 0 0 0 0 0 0 0 0 0 0 0 0 0 0 0 0 0 0 0 0 0 0 0 0 0 0 0 0 0
0 0 0 0 0 0 0 0 0 0 0 0 0 0 0 0 0 0 0 0 0 0 0 0 0 0 0 0 0 0 0 0 0 0 0 0 0 0 0 0 0 0 0 0
0 0 0 0 0 0 0 0 0 0 0 0 0 0 0 0 0 0 0 0 0 0 0 0 0 0 0 0 0 0 0 0 0 0 0 0 0 0 0 0 0 0 0 0
Wind_Speed
8 6 8 8 10 8 7 8 10 7 1 3 7 10 8 6 6 6 6 7 8 8 7 6 6 7 7 7 7 7 6 5 5 4 3 3 2 2 1 2 2 3 3 4
8 11 12 10 5 4 5 8 10 8 2 2 6 10 9 6 7 7 8 9 10 9 7 6 7 6 7 7 7 7 7 6 5 4 3 2 2 1 1 1 1 2 2 3
14 6 3 5 5 6 7 9 9 8 2 5 5 9 9 5 5 5 7 10 10 10 8 7 7 7 7 7 6 6 7 7 6 5 4 2 2 1 1 1 1 2 2 2
11 10 6 5 6 7 8 5 6 6 4 5 5 5 4 8 7 7 7 9 10 9 9 8 8 8 7 6 6 7 7 7 5 4 4 3 2 1 1 1 1 2 2 2
7 5 6 8 8 7 3 2 2 4 5 7 6 6 6 10 9 10 9 9 10 9 9 8 8 8 7 6 6 6 7 6 5 4 4 3 2 1 1 1 0 1 1 2
10 3 5 4 1 2 3 1 3 4 3 6 9 9 6 9 14 14 12 10 11 10 9 9 8 8 7 6 5 6 6 6 5 4 4 4 3 2 2 2 2 2 1 1
9 10 6 4 4 2 3 3 3 4 4 8 4 5 6 6 12 15 16 13 12 11 10 9 9 8 7 7 6 6 6 6 5 4 4 4 3 1 1 1 1 2 2 2
10 10 14 10 9 7 8 7 5 3 3 1 2 5 2 5 4 10 14 14 13 11 10 9 9 8 8 8 7 6 6 5 4 4 3 3 2 1 1 1 1 2 2 2
7 4 5 6 6 6 7 8 5 4 6 4 5 5 3 3 3 5 12 14 13 12 11 10 9 8 8 8 6 6 6 5 4 3 3 2 1 1 0 1 2 2 2 3
5 2 5 3 1 4 4 2 4 4 4 5 6 7 6 7 6 6 10 12 12 12 11 10 9 8 8 7 6 6 6 5 4 3 2 1 0 1 1 2 3 3 4 4
6 3 6 4 8 10 7 4 5 4 4 3 4 2 2 8 10 10 9 11 13 12 11 10 9 8 8 7 6 5 5 4 3 2 1 1 0 1 2 3 3 4 4 5
7 4 5 6 4 2 8 9 7 4 5 4 3 3 1 5 6 7 8 9 10 11 11 10 9 8 8 7 6 6 5 4 3 2 1 0 1 2 3 3 4 4 5 5
8 5 4 4 1 3 5 8 9 6 3 4 4 4 2 4 4 5 6 8 9 10 11 10 9 9 8 7 6 6 5 4 3 2 1 1 2 2 3 4 4 5 5 6
4 5 7 6 3 7 6 8 9 7 5 6 9 7 4 6 7 7 7 8 9 10 10 10 9 8 8 7 6 6 5 4 3 2 1 2 2 3 3 4 5 6 6 7
2 4 7 6 1 4 6 9 11 12 11 8 8 9 6 5 7 7 8 8 9 10 10 9 8 7 7 7 6 5 4 4 3 2 2 3 3 3 4 5 6 6 7 7
4 4 4 6 4 4 6 7 9 12 12 13 12 13 7 4 2 4 7 9 9 10 10 9 8 8 7 7 6 5 4 3 2 2 3 3 3 4 5 6 6 7 7 8
6 4 3 5 4 4 9 10 12 11 10 9 13 12 4 2 2 3 5 7 8 9 9 9 8 7 7 6 5 4 3 3 2 2 3 4 4 5 5 6 7 7 8 8
6 6 3 3 3 11 7 4 8 11 12 11 9 6 4 3 2 2 3 4 6 9 9 8 7 7 6 5 5 3 3 2 2 3 4 4 4 5 6 6 7 8 7 8
2 5 4 4 6 9 6 5 5 6 7 7 8 5 3 6 4 1 2 4 6 8 9 8 7 7 6 5 4 3 2 2 3 4 4 4 4 5 6 7 8 8 7 7
2 2 4 5 6 8 3 2 4 3 6 5 6 4 7 7 3 3 5 8 9 10 9 8 7 6 5 4 4 2 2 3 4 4 4 4 4 6 7 8 8 7 7 8
5 5 7 7 8 9 3 4 6 6 6 1 2 5 7 6 4 6 9 9 10 9 9 7 6 5 4 3 3 2 3 4 4 3 4 5 5 7 8 8 7 7 7 8
11 9 9 8 9 10 6 7 8 6 3 3 3 4 6 7 8 9 9 9 9 8 7 6 5 3 3 2 2 2 4 4 3 3 5 6 7 7 6 7 7 7 7 8
10 10 7 9 9 3 9 6 3 4 4 4 4 6 9 8 8 8 8 8 7 7 6 4 4 3 2 2 2 3 4 3 4 5 6 7 7 7 6 7 7 7 6 6
6 5 4 4 4 5 5 4 3 3 3 4 6 7 9 9 9 8 8 7 6 5 5 4 3 2 2 2 2 3 4 4 4 6 6 6 7 7 6 6 6 6 6 7
5 6 4 5 2 3 4 5 5 4 5 5 6 6 8 10 9 8 7 6 6 5 4 3 2 2 2 2 3 4 4 4 5 6 6 6 6 7 6 6 6 7 7 9
3 5 6 5 4 5 4 5 6 7 6 7 7 6 6 8 9 7 6 5 5 5 4 3 2 2 3 3 4 5 5 5 5 6 6 5 5 5 6 7 8 12 15 21
Wind_Direction
196 220 233 237 233 250 292 303 302 302 133 185 249 261 247 195 187 202 173 143 125 117 115 107 101 97 95 100 110 119 123 120 114 111 120 127 151 177 192 205 216 218 222 229
227 228 241 254 274 295 286 281 280 280 171 180 264 267 254 195 190 189 170 147 134 130 124 119 112 106 105 106 109 112 115 111 104 108 112 116 120 126 128 151 200 239 242 236
231 231 204 225 237 248 251 251 263 280 306 231 254 277 235 171 169 173 160 143 139 143 141 131 118 109 101 98 103 107 105 102 102 109 107 101 95 98 157 195 196 227 238 243
241 239 204 215 236 235 256 259 262 283 294 275 204 271 215 164 170 179 166 147 145 141 137 131 123 112 104 101 101 104 105 106 110 116 114 130 136 139 149 152 181 228 209 205
231 197 201 224 235 238 242 32 313 275 264 275 258 252 253 155 181 189 180 160 148 142 137 131 125 122 117 114 110 111 110 109 110 106 104 97 84 80 70 51 55 305 238 182
249 220 194 219 199 275 123 187 250 255 253 257 232 219 250 184 192 183 180 166 152 144 137 132 128 125 123 122 119 119 116 115 113 110 107 95 83 52 37 16 6 337 317 265
237 231 201 159 148 173 174 203 228 213 216 242 221 205 252 184 177 176 175 166 155 148 146 147 149 147 143 142 140 135 127 126 125 116 108 107 95 54 39 29 354 336 322 312
213 222 196 186 192 182 193 215 231 249 237 209 179 228 252 68 102 161 162 157 154 155 157 160 161 154 150 151 151 142 134 132 127 120 115 111 113 102 59 19 326 303 289 283
226 205 127 157 190 209 193 215 252 304 302 287 246 209 127 84 77 144 155 156 163 163 162 162 159 155 153 154 152 143 137 133 128 125 115 94 78 83 28 315 300 291 287 288
263 181 135 95 117 245 274 244 178 204 237 250 252 230 198 175 185 182 169 167 167 164 163 161 161 157 153 150 143 137 136 136 135 124 113 113 51 31 337 308 296 290 290 291
226 224 143 162 201 195 189 229 219 216 245 249 277 289 35 160 174 183 186 175 171 169 167 163 159 154 149 143 143 141 139 136 130 120 108 86 3 337 311 293 285 287 289 291
196 231 204 190 186 196 196 203 205 212 231 219 254 277 63 93 141 166 180 175 170 168 164 159 155 152 150 150 151 149 148 143 136 129 116 329 305 298 292 291 294 299 296 292
174 205 208 164 178 206 217 218 219 238 274 252 236 244 123 120 138 157 169 170 166 162 159 156 155 157 157 156 154 152 150 144 135 131 157 279 287 291 293 297 301 300 294 290
193 225 222 209 172 164 194 206 210 213 223 237 235 248 210 192 190 185 179 172 165 162 161 159 159 159 156 154 151 149 148 142 141 159 217 264 279 288 293 296 295 290 286 285
196 243 253 265 235 165 195 198 202 213 225 235 246 254 254 217 200 187 175 168 161 159 159 160 158 154 149 146 143 141 143 143 153 188 231 255 269 285 288 287 285 284 283 282
198 238 259 262 246 236 238 226 217 220 229 243 259 266 269 285 176 161 165 167 168 165 162 157 152 147 147 145 143 143 151 156 162 210 243 256 267 274 275 277 280 281 280 279
184 205 219 249 245 266 248 220 223 230 226 223 242 252 260 240 188 181 172 172 171 161 154 152 148 143 140 139 140 151 158 155 182 232 252 259 263 269 273 278 282 282 281 280
185 195 212 223 221 238 235 189 212 226 235 229 238 242 214 191 139 106 128 154 156 147 142 139 134 130 128 127 134 142 150 175 218 242 253 258 262 268 273 276 278 279 277 278
222 191 196 191 229 260 248 210 186 209 246 228 236 236 154 108 83 57 112 122 132 131 128 126 125 125 126 134 142 147 179 220 243 253 258 263 268 274 278 278 276 276 279 283
249 238 207 196 215 238 230 188 157 146 262 240 216 185 139 124 150 215 129 107 104 106 108 112 115 120 131 144 143 162 219 245 256 259 263 274 281 280 278 275 275 277 280 280
178 201 212 213 228 250 197 152 122 175 234 142 131 141 147 163 176 139 115 106 106 107 110 114 119 129 144 146 151 203 241 253 259 269 280 281 277 274 273 274 275 278 278 280
178 184 200 201 225 240 160 159 187 202 146 129 125 132 131 118 111 116 115 116 116 117 121 125 129 139 149 159 181 233 253 260 273 282 281 279 276 276 279 278 278 278 280 285
189 191 190 198 214 208 164 178 159 125 140 146 142 131 130 131 132 127 126 127 129 132 134 134 141 152 177 199 210 246 263 275 282 282 279 278 279 277 277 278 282 284 282 281
200 188 211 231 198 158 152 125 132 136 135 134 136 137 139 141 141 139 140 139 138 137 140 142 147 171 218 241 256 259 270 275 278 278 279 278 281 281 280 279 277 279 279 280
189 164 200 236 202 139 179 182 165 149 130 125 127 137 144 140 142 144 144 144 143 140 141 145 161 202 244 266 271 271 274 278 278 277 277 280 279 279 281 277 273 278 268 275
185 173 184 211 186 179 187 171 158 152 155 150 139 131 130 137 140 138 140 139 138 141 143 158 195 230 254 267 274 277 276 273 274 277 278 276 276 277 278 283 286 278 280 291